Regional Weather Roundup
Issued by NWS Northern Indiana

Home | Current Version | Previous Version | Text Only | Print | Product List | Glossary On
Versions: 1 2 3 4 5 6 7 8 9 10 11 12 13 14 15 16 17 18 19 20 21 22 23 24 25 26 27 28 29 30 31 32 33 34 35 36 37 38 39 40 41 42 43 44 45 46 47 48 49 50
702
ASUS43 KIWX 060910
RWRIWX

KIWX WEATHER ROUNDUP
NATIONAL WEATHER SERVICE NORTHERN INDIANA
400 AM EST TUE DEC 06 2016

NOTE: "FAIR" INDICATES FEW OR NO CLOUDS BELOW 12,000 FEET WITH NO
SIGNIFICANT WEATHER AND/OR OBSTRUCTIONS TO VISIBILITY.

* THESE STATIONS ARE NOT UNDER NWS QUALITY CONTROL. THEY ALSO MAY NOT
  REPORT WEATHER SUCH AS PRECIPITATION OR FOG.

INZ001>027-061000-
NORTHERN INDIANA

CITY           SKY/WX    TMP DP  RH WIND       PRES   REMARKS
GARY*          PTCLDY    33  32  98 E6        29.87F FOG     WCI  27
VALPARAISO     CLOUDY    30  27  88 E10       29.86F FOG     WCI  21
MICHIGAN CITY* CLOUDY    32  32 100 CALM      29.87F
LAPORTE*       CLOUDY   N/A N/A N/A E8        29.87F HAZE
KNOX*          CLOUDY    32  19  59 E6        29.85F WCI  26
SOUTH BEND     CLOUDY    30  28  92 E9        29.88F WCI  22
GOSHEN         PTCLDY    31  27  85 E12       29.87F WCI  22
MONTICELLO*    CLOUDY    33  28  84 E5        29.82F WCI  28
LOGANSPORT*    MOCLDY    32  30  93 E7        29.84F WCI  26
ROCHESTER*     CLOUDY    34  32  93 E9        29.86F WCI  26
WARSAW*        CLOUDY    32  28  86 E10       29.87F WCI  24
ANGOLA*        CLEAR     30  27  86 E8        29.89F WCI  23
FORT WAYNE     CLOUDY    30  27  88 E12       29.88F WCI  20
HUNTINGTON*    CLOUDY    30  29  96 E8        29.86F WCI  23
PERU/GRISSOM   CLOUDY    33  31  95 E10       29.81F WCI  24
MARION*        CLOUDY    32  30  92 E9        29.83F WCI  24

$$
INZ028>050-061000-
CENTRAL INDIANA

CITY           SKY/WX    TMP DP  RH WIND       PRES   REMARKS
LAFAYETTE      PTCLDY    33  32  96 E10       29.81F WCI  25
KOKOMO*        CLOUDY    32  30  92 E9        29.83F WCI  24
MUNCIE*        CLOUDY    35  30  82 E12       29.83F WCI  27
INDIANAPOLIS   CLOUDY    38  32  79 E13       29.79F

$$
MIZ043>046-050>051-056>058-064>065-071>073-077>080-061000-
SOUTHWEST LOWER MICHIGAN

CITY           SKY/WX    TMP DP  RH WIND       PRES   REMARKS
BATTLE CREEK   PTCLDY    30  28  92 E7        29.93S WCI  23
BENTON HARBOR  CLOUDY    31  28  89 E7        29.89F FOG     WCI  24
COLDWATER*     PTCLDY    32  29  89 E8        29.91F WCI  25
HILLSDALE*     PTCLDY    32  30  93 E13       29.91F WCI  22
HOLLAND        PTCLDY    30  27  88 E7        29.92F WCI  23
GRAND RAPIDS   PTCLDY    29  26  89 E12       29.93F FOG     WCI  19
KALAMAZOO      PTCLDY    30  27  88 E6        29.91F FOG     WCI  24
STURGIS*       CLOUDY    31  28  89 E8        29.89F WCI  23
THREE RIVERS*  FAIR      30  28  94 E6        29.90F FOG     WCI  24

$$
OHZ001>008-015>018-024>025-061000-
NORTHWEST OHIO

CITY           SKY/WX    TMP DP  RH WIND       PRES   REMARKS
DEFIANCE       CLOUDY    30  26  85 E7        29.92F WCI  23
FINDLAY        CLOUDY    31  26  82 E12       29.90F WCI  22
TOLEDO EXPRESS PTCLDY    32  30  92 E13       29.94F WCI  22
TOLEDO METCALF PTCLDY    33  30  88 E8        29.96F WCI  26
LIMA           PTCLDY    31  28  89 E12       29.88F WCI  22

$$
AND FOR LAKE MICHIGAN COASTAL AND OPEN LAKE BUOY OBSERVATIONS

STATION/POSITION TEMP    WIND        PRES    VSBY  WAVE
                 AIR SEA DIR/SP/G                  HT/PER
                 (F)     (DEG/KT/KT) (MB)    (MI)  (FT/S)
CALUMET HARBOR    36     110/  6/  8 1011.0F
BURNS HARBOR      34     100/  7/ 13 1012.2S
SAINT JOSEPH      32     100/  2/  4 1012.9

$$
&&




USA.gov is the U.S. government's official web portal to all federal, state and local government web resources and services.